Location: Muenchen
(48.1800°N, 11.5800°E)
Time: 22:26:31
(UTC+01:00)

ISS - Visible Passes

Search period start: 13 February 2016 00:00
Search period end: 23 February 2016 00:00
Orbit: 398 x 407 km, 51.6° (Epoch: 13 February)

Date Brightness Start Highest point End Pass type
(mag) Time Alt. Az. Time Alt. Az. Time Alt. Az.
13 Feb -3.2 19:04:26 10° WNW 19:07:39 58° NNE 19:08:19 46° ENE visible
14 Feb -2.9 18:11:37 10° WNW 18:14:48 47° N 18:17:48 11° E visible
14 Feb -2.1 19:48:07 10° WNW 19:50:26 41° W 19:50:26 41° W visible
15 Feb -3.4 18:55:17 10° WNW 18:58:33 87° NNE 18:59:58 31° ESE visible
15 Feb 0.0 20:32:14 10° W 20:32:36 12° W 20:32:36 12° W visible
16 Feb -3.2 18:02:26 10° WNW 18:05:40 63° NNE 18:08:54 10° E visible
16 Feb -2.0 19:39:02 10° W 19:41:59 32° SW 19:42:11 32° SSW visible
17 Feb -2.7 18:46:02 10° WNW 18:49:13 53° SSW 18:51:52 14° SE visible
18 Feb -0.7 19:30:12 10° W 19:32:23 17° SW 19:34:18 11° S visible
19 Feb -1.4 18:36:48 10° W 18:39:38 28° SW 18:42:27 10° SSE visible
21 Feb -0.4 18:27:54 10° W 18:29:49 15° SW 18:31:42 10° S visible
